QTR1190 OTHH-OEJN

Flight info

Callsign QTR1190
Flight time 2h 25m
Altitude 30000
Route DATRI L564 MIGMA M550 MEVDO Y511 ASMIS T218 IMGUT M309 VEMEM
Aircraft A310/H-SDFGHIM1RTUWXY/LB1

Departure

Time 2026-05-07 15:38
Airport Hamad International Airport (OTHH)

Arrival

Time 2026-05-07 18:03
Airport King Abdulaziz International Airport (OEJN)
Time Latitude Longitude Altitude Speed Heading
2026-05-07 15:05 25.26524 51.61269 13 ft 0 kts 248°
2026-05-07 15:26 25.26527 51.61278 13 ft 2 kts 249°
2026-05-07 15:26 25.26533 51.61294 13 ft 2 kts 248°
2026-05-07 15:27 25.26538 51.61309 13 ft 2 kts 248°
2026-05-07 15:27 25.26544 51.61325 13 ft 2 kts 248°
2026-05-07 15:27 25.26548 51.61334 13 ft 2 kts 243°
2026-05-07 15:27 25.26557 51.61348 13 ft 2 kts 221°
2026-05-07 15:28 25.26570 51.61357 13 ft 2 kts 202°
2026-05-07 15:28 25.26585 51.61361 13 ft 2 kts 182°
2026-05-07 15:28 25.26600 51.61360 13 ft 2 kts 163°
2026-05-07 15:28 25.26607 51.61357 13 ft 1 kts 157°
2026-05-07 15:29 25.26608 51.61356 13 ft 0 kts 157°
2026-05-07 15:33 25.26600 51.61360 13 ft 2 kts 157°
2026-05-07 15:33 25.26574 51.61372 13 ft 5 kts 157°
2026-05-07 15:33 25.26532 51.61393 13 ft 7 kts 156°
2026-05-07 15:33 25.26473 51.61418 13 ft 10 kts 161°
2026-05-07 15:34 25.26403 51.61459 13 ft 12 kts 125°
2026-05-07 15:34 25.26408 51.61558 13 ft 14 kts 70°
2026-05-07 15:34 25.26452 51.61670 13 ft 16 kts 64°
2026-05-07 15:34 25.26500 51.61795 13 ft 18 kts 70°
2026-05-07 15:35 25.26553 51.61939 13 ft 20 kts 67°
2026-05-07 15:35 25.26550 51.62028 13 ft 8 kts 147°
2026-05-07 15:35 25.26435 51.62081 13 ft 28 kts 160°
2026-05-07 15:35 25.26236 51.62170 13 ft 30 kts 159°
2026-05-07 15:36 25.26047 51.62252 13 ft 22 kts 158°
2026-05-07 15:36 25.25987 51.62308 13 ft 9 kts 69°
2026-05-07 15:36 25.26016 51.62378 13 ft 10 kts 72°
2026-05-07 15:36 25.26065 51.62442 13 ft 10 kts
2026-05-07 15:37 25.26154 51.62408 13 ft 25 kts 338°
2026-05-07 15:37 25.26488 51.62261 13 ft 83 kts 339°
2026-05-07 15:37 25.27257 51.61919 13 ft 149 kts 339°
2026-05-07 15:37 25.28416 51.61409 319 ft 177 kts 339°
2026-05-07 15:38 25.29591 51.60900 975 ft 181 kts 346°
2026-05-07 15:38 25.30796 51.60663 1824 ft 182 kts 351°
2026-05-07 15:38 25.31975 51.60430 2230 ft 181 kts 347°
2026-05-07 15:38 25.33213 51.60151 2919 ft 183 kts 353°
2026-05-07 15:39 25.34452 51.59752 3522 ft 183 kts 319°
2026-05-07 15:39 25.35149 51.58538 4076 ft 195 kts 290°
2026-05-07 15:39 25.35378 51.56949 4583 ft 217 kts 269°
2026-05-07 15:39 25.35074 51.55221 5001 ft 242 kts 250°
2026-05-07 15:40 25.34226 51.53533 5473 ft 258 kts 232°
2026-05-07 15:40 25.32999 51.52076 5916 ft 261 kts 224°
2026-05-07 15:40 25.31688 51.50684 6344 ft 261 kts 223°
2026-05-07 15:40 25.30296 51.49253 6812 ft 282 kts 219°
2026-05-07 15:41 25.28601 51.48099 7394 ft 293 kts 201°
2026-05-07 15:41 25.26621 51.47478 8199 ft 297 kts 186°
2026-05-07 15:41 25.24554 51.47411 9029 ft 298 kts 175°
2026-05-07 15:41 25.22441 51.47567 9612 ft 313 kts 173°
2026-05-07 15:42 25.20156 51.47788 9873 ft 337 kts 173°
2026-05-07 15:42 25.17742 51.48043 10129 ft 355 kts 173°
2026-05-07 15:42 25.15275 51.48307 10413 ft 356 kts 173°
2026-05-07 15:42 25.12809 51.48570 10875 ft 359 kts 173°
2026-05-07 15:43 25.10292 51.48842 11788 ft 360 kts 173°
2026-05-07 15:43 25.07819 51.49108 12691 ft 361 kts 173°
2026-05-07 15:43 25.05322 51.49378 13546 ft 362 kts 173°
2026-05-07 15:43 25.02764 51.49668 14292 ft 366 kts 173°
2026-05-07 15:44 25.00234 51.49963 14960 ft 369 kts 173°
2026-05-07 15:44 24.97677 51.50365 15723 ft 373 kts 166°
2026-05-07 15:44 24.95073 51.51133 16413 ft 377 kts 164°
2026-05-07 15:44 24.92530 51.51893 17108 ft 381 kts 165°
2026-05-07 15:45 24.89902 51.52655 17742 ft 385 kts 165°
2026-05-07 15:45 24.87197 51.53419 18347 ft 389 kts 166°
2026-05-07 15:45 24.84346 51.54211 18948 ft 393 kts 166°
2026-05-07 15:45 24.81426 51.55010 19586 ft 397 kts 167°
2026-05-07 15:46 24.75808 51.56470 20491 ft 400 kts 172°
2026-05-07 15:46 24.73023 51.56737 20860 ft 402 kts 180°
2026-05-07 15:46 24.70219 51.56622 21231 ft 404 kts 186°
2026-05-07 15:47 24.67416 51.56250 21598 ft 405 kts 190°
2026-05-07 15:47 24.64591 51.55740 21966 ft 407 kts 192°
2026-05-07 15:47 24.61755 51.55156 22331 ft 409 kts 193°
2026-05-07 15:47 24.58960 51.54543 22691 ft 410 kts 193°
2026-05-07 15:48 24.56154 51.53909 23048 ft 413 kts 193°
2026-05-07 15:48 24.53281 51.53248 23425 ft 415 kts 194°
2026-05-07 15:48 24.50322 51.52562 23707 ft 417 kts 194°
2026-05-07 15:48 24.47393 51.51878 23948 ft 418 kts 194°
2026-05-07 15:49 24.44438 51.51184 24191 ft 420 kts 194°
2026-05-07 15:49 24.41464 51.50483 24438 ft 421 kts 195°
2026-05-07 15:49 24.38582 51.49805 24680 ft 423 kts 195°
2026-05-07 15:49 24.35685 51.49124 24769 ft 424 kts 195°
2026-05-07 15:50 24.32792 51.48442 24785 ft 425 kts 195°
2026-05-07 15:50 24.29907 51.47760 24789 ft 423 kts 195°
2026-05-07 15:50 24.26978 51.47094 24784 ft 424 kts 193°
2026-05-07 15:50 24.24063 51.46623 24787 ft 426 kts 189°
2026-05-07 15:51 24.21117 51.46343 24891 ft 427 kts 187°
2026-05-07 15:51 24.18132 51.46185 25276 ft 430 kts 185°
2026-05-07 15:51 24.15106 51.46102 25635 ft 430 kts 184°
2026-05-07 15:51 24.12137 51.46063 25974 ft 430 kts 184°
2026-05-07 15:52 24.09114 51.46042 26337 ft 434 kts 184°
2026-05-07 15:52 24.06060 51.46036 26695 ft 436 kts 184°
2026-05-07 15:52 24.02999 51.46037 27023 ft 440 kts 184°
2026-05-07 15:52 23.99926 51.46039 27251 ft 446 kts 184°
2026-05-07 15:53 23.96818 51.46042 27487 ft 451 kts 184°
2026-05-07 15:53 23.93611 51.46050 27727 ft 456 kts 184°
2026-05-07 15:53 23.90424 51.46055 27965 ft 461 kts 184°
2026-05-07 15:53 23.87193 51.46063 28203 ft 466 kts 184°
2026-05-07 15:54 23.83928 51.46071 28436 ft 470 kts 184°
2026-05-07 15:54 23.80658 51.46083 28647 ft 475 kts 184°
2026-05-07 15:54 23.77297 51.46095 28868 ft 479 kts 184°
2026-05-07 15:54 23.73944 51.46104 29091 ft 483 kts 184°
2026-05-07 15:55 23.70545 51.46116 29319 ft 487 kts 184°
2026-05-07 15:55 23.67159 51.46124 29538 ft 490 kts 184°
2026-05-07 15:55 23.63734 51.46130 29740 ft 487 kts 184°
2026-05-07 15:56 23.57011 51.46156 29767 ft 477 kts 184°
2026-05-07 15:56 23.50340 51.46192 29770 ft 477 kts 183°
2026-05-07 15:57 23.43693 51.46028 29769 ft 473 kts 192°
2026-05-07 15:57 23.37258 51.43785 29774 ft 465 kts 211°
2026-05-07 15:58 23.31934 51.39386 29776 ft 459 kts 230°
2026-05-07 15:58 23.28455 51.33635 29783 ft 455 kts 247°
2026-05-07 15:59 23.26853 51.26997 29795 ft 453 kts 261°
2026-05-07 15:59 23.25991 51.20236 29782 ft 454 kts 262°
2026-05-07 16:00 23.25203 51.13417 29783 ft 453 kts 263°
2026-05-07 16:00 23.24502 51.06627 29787 ft 452 kts 263°
2026-05-07 16:01 23.23799 50.99775 29785 ft 454 kts 263°
2026-05-07 16:01 23.23101 50.92997 29794 ft 452 kts 263°
2026-05-07 16:02 23.22399 50.86205 29797 ft 450 kts 263°
2026-05-07 16:02 23.21708 50.79479 29801 ft 447 kts 263°
2026-05-07 16:03 23.21028 50.72761 29803 ft 446 kts 263°
2026-05-07 16:03 23.20355 50.66051 29802 ft 446 kts 263°
2026-05-07 16:04 23.19681 50.59323 29800 ft 445 kts 263°
2026-05-07 16:04 23.19022 50.52701 29798 ft 439 kts 263°
2026-05-07 16:05 23.18363 50.46087 29795 ft 438 kts 263°
2026-05-07 16:05 23.17709 50.39514 29793 ft 439 kts 263°
2026-05-07 16:06 23.17056 50.32938 29800 ft 437 kts 263°
2026-05-07 16:06 23.16405 50.26360 29801 ft 439 kts 263°
2026-05-07 16:07 23.15756 50.19789 29807 ft 438 kts 263°
2026-05-07 16:07 23.15114 50.13211 29804 ft 438 kts 263°
2026-05-07 16:08 23.14472 50.06650 29804 ft 438 kts 263°
2026-05-07 16:08 23.13825 50.00040 29802 ft 438 kts 263°
2026-05-07 16:09 23.13188 49.93478 29805 ft 435 kts 263°
2026-05-07 16:09 23.12557 49.86944 29802 ft 435 kts 263°
2026-05-07 16:10 23.11923 49.80402 29802 ft 435 kts 263°
2026-05-07 16:10 23.11289 49.73838 29804 ft 436 kts 263°
2026-05-07 16:11 23.10667 49.67307 29803 ft 435 kts 263°
2026-05-07 16:11 23.10046 49.60774 29801 ft 435 kts 263°
2026-05-07 16:12 23.09431 49.54260 29802 ft 434 kts 263°
2026-05-07 16:12 23.08828 49.47750 29811 ft 434 kts 263°
2026-05-07 16:13 23.08233 49.41233 29817 ft 434 kts 264°
2026-05-07 16:13 23.07640 49.34724 29812 ft 435 kts 263°
2026-05-07 16:14 23.07002 49.28114 29819 ft 439 kts 262°
2026-05-07 16:14 23.06295 49.21510 29817 ft 440 kts 262°
2026-05-07 16:15 23.05580 49.14856 29822 ft 438 kts 262°
2026-05-07 16:15 23.04869 49.08234 29825 ft 438 kts 262°
2026-05-07 16:16 23.04166 49.01619 29833 ft 436 kts 262°
2026-05-07 16:16 23.03473 48.95073 29836 ft 437 kts 263°
2026-05-07 16:17 23.02780 48.88537 29836 ft 437 kts 262°
2026-05-07 16:17 23.02089 48.81958 29838 ft 437 kts 263°
2026-05-07 16:18 23.01403 48.75426 29837 ft 438 kts 263°
2026-05-07 16:18 23.00724 48.68895 29846 ft 437 kts 263°
2026-05-07 16:19 23.00046 48.62329 29851 ft 437 kts 263°
2026-05-07 16:19 22.99374 48.55794 29852 ft 436 kts 263°
2026-05-07 16:20 22.98703 48.49268 29857 ft 436 kts 263°
2026-05-07 16:20 22.98041 48.42712 29865 ft 436 kts 263°
2026-05-07 16:21 22.97381 48.36198 29864 ft 434 kts 263°
2026-05-07 16:21 22.96718 48.29697 29870 ft 434 kts 262°
2026-05-07 16:22 22.96055 48.23187 29869 ft 434 kts 262°
2026-05-07 16:22 22.95401 48.16691 29882 ft 435 kts 263°
2026-05-07 16:23 22.94660 48.09935 29892 ft 436 kts 260°
2026-05-07 16:23 22.93954 48.06605 29880 ft 434 kts 249°
2026-05-07 16:23 22.92698 48.03447 29905 ft 431 kts 248°
2026-05-07 16:24 22.90784 47.97321 29912 ft 428 kts 254°
2026-05-07 16:24 22.89412 47.91053 29912 ft 427 kts 257°
2026-05-07 16:25 22.88249 47.84740 29904 ft 428 kts 258°
2026-05-07 16:25 22.87147 47.78388 29915 ft 428 kts 258°
2026-05-07 16:26 22.86068 47.72054 29929 ft 426 kts 258°
2026-05-07 16:26 22.84988 47.65688 29932 ft 427 kts 258°
2026-05-07 16:27 22.83903 47.59285 29929 ft 427 kts 258°
2026-05-07 16:27 22.82819 47.52902 29936 ft 427 kts 258°
2026-05-07 16:28 22.81747 47.46601 29945 ft 425 kts 258°
2026-05-07 16:28 22.80662 47.40251 29953 ft 426 kts 258°
2026-05-07 16:29 22.79576 47.33931 29951 ft 428 kts 258°
2026-05-07 16:29 22.78497 47.27629 29974 ft 426 kts 258°
2026-05-07 16:30 22.77596 47.21302 29973 ft 427 kts 263°
2026-05-07 16:30 22.77500 47.14841 29982 ft 428 kts 269°
2026-05-07 16:31 22.77819 47.08417 29992 ft 428 kts 271°
2026-05-07 16:31 22.78267 47.01991 29994 ft 429 kts 271°
2026-05-07 16:32 22.78752 46.95575 29996 ft 428 kts 272°
2026-05-07 16:32 22.79253 46.89129 29999 ft 428 kts 272°
2026-05-07 16:33 22.79748 46.82721 30000 ft 427 kts 272°
2026-05-07 16:33 22.80247 46.76320 30001 ft 428 kts 272°
2026-05-07 16:34 22.80741 46.69923 30009 ft 427 kts 271°
2026-05-07 16:34 22.81236 46.63495 30018 ft 427 kts 271°
2026-05-07 16:35 22.81725 46.57043 30029 ft 427 kts 271°
2026-05-07 16:35 22.82218 46.50556 30036 ft 427 kts 271°
2026-05-07 16:36 22.82702 46.44152 30044 ft 427 kts 271°
2026-05-07 16:36 22.83182 46.37753 30047 ft 427 kts 271°
2026-05-07 16:37 22.83658 46.31329 30064 ft 425 kts 271°
2026-05-07 16:37 22.84129 46.24954 30073 ft 425 kts 271°
2026-05-07 16:38 22.84605 46.18508 30060 ft 425 kts 271°
2026-05-07 16:38 22.85082 46.11988 30042 ft 429 kts 271°
2026-05-07 16:39 22.85581 46.05162 30015 ft 431 kts 271°
2026-05-07 16:39 22.86080 45.98237 29994 ft 430 kts 271°
2026-05-07 16:40 22.86567 45.91422 29992 ft 430 kts 271°
2026-05-07 16:40 22.87065 45.84447 29994 ft 430 kts 271°
2026-05-07 16:41 22.87546 45.77634 29992 ft 430 kts 271°
2026-05-07 16:41 22.88034 45.70720 30000 ft 431 kts 271°
2026-05-07 16:42 22.88517 45.63829 30004 ft 430 kts 271°
2026-05-07 16:42 22.88992 45.57044 30010 ft 429 kts 271°
2026-05-07 16:43 22.89459 45.50282 30012 ft 430 kts 270°
2026-05-07 16:43 22.89920 45.43546 30019 ft 430 kts 271°
2026-05-07 16:44 22.90387 45.36701 30020 ft 428 kts 271°
2026-05-07 16:44 22.90843 45.29998 30035 ft 428 kts 270°
2026-05-07 16:45 22.91306 45.23187 30040 ft 429 kts 270°
2026-05-07 16:45 22.91755 45.16472 30046 ft 428 kts 270°
2026-05-07 16:46 22.92201 45.09722 30046 ft 428 kts 270°
2026-05-07 16:46 22.92646 45.03004 30042 ft 427 kts 270°
2026-05-07 16:47 22.93088 44.96244 30034 ft 428 kts 270°
2026-05-07 16:47 22.93524 44.89521 30036 ft 428 kts 270°
2026-05-07 16:48 22.93961 44.82795 30032 ft 427 kts 270°
2026-05-07 16:48 22.94389 44.76137 30036 ft 429 kts 270°
2026-05-07 16:49 22.94671 44.69374 30042 ft 429 kts 267°
2026-05-07 16:49 22.94596 44.62666 30040 ft 427 kts 265°
2026-05-07 16:50 22.94371 44.55978 30048 ft 428 kts 264°
2026-05-07 16:50 22.94098 44.49304 30053 ft 427 kts 264°
2026-05-07 16:51 22.93810 44.42608 30058 ft 428 kts 264°
2026-05-07 16:51 22.93518 44.36031 30062 ft 429 kts 264°
2026-05-07 16:52 22.93218 44.29347 30081 ft 429 kts 264°
2026-05-07 16:52 22.92907 44.22582 30091 ft 429 kts 264°
2026-05-07 16:53 22.92598 44.15855 30092 ft 431 kts 264°
2026-05-07 16:53 22.92289 44.09111 30099 ft 430 kts 264°
2026-05-07 16:54 22.91972 44.02283 30103 ft 432 kts 264°
2026-05-07 16:54 22.91649 43.95423 30105 ft 431 kts 264°
2026-05-07 16:55 22.91317 43.88514 30096 ft 432 kts 264°
2026-05-07 16:55 22.90981 43.81542 30100 ft 431 kts 264°
2026-05-07 16:56 22.90647 43.74619 30091 ft 433 kts 264°
2026-05-07 16:56 22.90153 43.64585 30096 ft 432 kts 264°
2026-05-07 16:57 22.89827 43.58024 30096 ft 431 kts 264°
2026-05-07 16:57 22.89502 43.51482 30094 ft 431 kts 264°
2026-05-07 16:58 22.89170 43.44992 30095 ft 432 kts 264°
2026-05-07 16:58 22.88848 43.38447 30101 ft 434 kts 264°
2026-05-07 16:59 22.88515 43.31891 30102 ft 433 kts 264°
2026-05-07 16:59 22.88168 43.25305 30109 ft 433 kts 264°
2026-05-07 17:00 22.87826 43.18741 30105 ft 434 kts 264°
2026-05-07 17:00 22.87480 43.12160 30106 ft 435 kts 264°
2026-05-07 17:01 22.87136 43.05583 30101 ft 433 kts 264°
2026-05-07 17:01 22.86788 42.99034 30104 ft 435 kts 264°
2026-05-07 17:02 22.86437 42.92515 30091 ft 433 kts 264°
2026-05-07 17:02 22.86097 42.85995 30096 ft 436 kts 264°
2026-05-07 17:03 22.85742 42.79481 30087 ft 433 kts 264°
2026-05-07 17:03 22.85383 42.72944 30080 ft 435 kts 264°
2026-05-07 17:04 22.85018 42.66379 30085 ft 435 kts 264°
2026-05-07 17:04 22.84658 42.59842 30081 ft 437 kts 264°
2026-05-07 17:05 22.84286 42.53285 30078 ft 436 kts 264°
2026-05-07 17:05 22.83921 42.46692 30086 ft 438 kts 263°
2026-05-07 17:06 22.83549 42.40139 30084 ft 435 kts 263°
2026-05-07 17:06 22.83178 42.33527 30091 ft 437 kts 263°
2026-05-07 17:07 22.82795 42.26943 30095 ft 438 kts 263°
2026-05-07 17:07 22.82413 42.20385 30096 ft 436 kts 263°
2026-05-07 17:08 22.82029 42.13776 30095 ft 436 kts 263°
2026-05-07 17:08 22.81639 42.07216 30101 ft 437 kts 263°
2026-05-07 17:09 22.81252 42.00612 30107 ft 439 kts 262°
2026-05-07 17:09 22.80834 41.93981 30101 ft 439 kts 262°
2026-05-07 17:10 22.80306 41.87391 30095 ft 437 kts 261°
2026-05-07 17:10 22.79714 41.80822 30098 ft 438 kts 261°
2026-05-07 17:11 22.79054 41.73843 30097 ft 435 kts 261°
2026-05-07 17:11 22.78392 41.66881 30097 ft 435 kts 261°
2026-05-07 17:12 22.77725 41.59883 30094 ft 434 kts 261°
2026-05-07 17:12 22.77083 41.53338 30095 ft 434 kts 261°
2026-05-07 17:13 22.76457 41.46835 30102 ft 433 kts 261°
2026-05-07 17:13 22.75817 41.40306 30097 ft 433 kts 260°
2026-05-07 17:14 22.74888 41.33907 30099 ft 430 kts 253°
2026-05-07 17:14 22.73192 41.27738 30100 ft 427 kts 248°
2026-05-07 17:15 22.71151 41.21661 30097 ft 429 kts 246°
2026-05-07 17:15 22.69003 41.15653 30092 ft 428 kts 246°
2026-05-07 17:16 22.66821 41.09654 30079 ft 422 kts 246°
2026-05-07 17:16 22.64657 41.03741 30075 ft 419 kts 246°
2026-05-07 17:17 22.62498 40.97875 30075 ft 419 kts 246°
2026-05-07 17:17 22.60336 40.92000 30075 ft 419 kts 246°
2026-05-07 17:18 22.58161 40.86106 30076 ft 418 kts 246°
2026-05-07 17:18 22.56005 40.80264 30068 ft 420 kts 246°
2026-05-07 17:19 22.53841 40.74409 30069 ft 418 kts 246°
2026-05-07 17:19 22.51672 40.68554 30072 ft 417 kts 246°
2026-05-07 17:20 22.49514 40.62732 30076 ft 419 kts 246°
2026-05-07 17:20 22.47344 40.56875 30081 ft 418 kts 246°
2026-05-07 17:21 22.45163 40.51016 30082 ft 416 kts 246°
2026-05-07 17:21 22.42990 40.45182 30093 ft 415 kts 246°
2026-05-07 17:22 22.40826 40.39370 29855 ft 409 kts 246°
2026-05-07 17:22 22.39758 40.36512 29288 ft 401 kts 246°
2026-05-07 17:22 22.38721 40.33754 28743 ft 394 kts 246°
2026-05-07 17:23 22.37699 40.31025 28201 ft 391 kts 246°
2026-05-07 17:23 22.36685 40.28316 27670 ft 391 kts 246°
2026-05-07 17:23 22.35675 40.25610 27144 ft 389 kts 246°
2026-05-07 17:23 22.34665 40.22910 26614 ft 387 kts 246°
2026-05-07 17:24 22.33651 40.20203 26067 ft 385 kts 246°
2026-05-07 17:24 22.32651 40.17535 25533 ft 384 kts 246°
2026-05-07 17:24 22.31662 40.14883 25009 ft 381 kts 247°
2026-05-07 17:24 22.30696 40.12206 24472 ft 380 kts 247°
2026-05-07 17:25 22.29738 40.09542 23936 ft 379 kts 248°
2026-05-07 17:25 22.28793 40.06926 23397 ft 378 kts 248°
2026-05-07 17:25 22.27814 40.04276 22840 ft 376 kts 244°
2026-05-07 17:25 22.26510 40.01835 22330 ft 372 kts 237°
2026-05-07 17:26 22.25124 39.99513 21849 ft 370 kts 237°
2026-05-07 17:26 22.23727 39.97207 21360 ft 366 kts 236°
2026-05-07 17:26 22.22327 39.94902 20863 ft 364 kts 236°
2026-05-07 17:26 22.20954 39.92635 20453 ft 359 kts 236°
2026-05-07 17:27 22.19598 39.90387 20213 ft 356 kts 237°
2026-05-07 17:27 22.18240 39.88141 19964 ft 356 kts 237°
2026-05-07 17:27 22.16891 39.85909 19715 ft 356 kts 237°
2026-05-07 17:27 22.15524 39.83644 19459 ft 355 kts 237°
2026-05-07 17:28 22.14189 39.81431 19204 ft 355 kts 236°
2026-05-07 17:28 22.12852 39.79178 18935 ft 354 kts 243°
2026-05-07 17:28 22.12336 39.76633 18703 ft 349 kts 268°
2026-05-07 17:28 22.12463 39.74038 18450 ft 346 kts 272°
2026-05-07 17:29 22.12701 39.71467 18211 ft 345 kts 274°
2026-05-07 17:29 22.12958 39.68913 17975 ft 342 kts 273°
2026-05-07 17:29 22.13225 39.66361 17709 ft 342 kts 274°
2026-05-07 17:29 22.13495 39.63809 17449 ft 341 kts 274°
2026-05-07 17:30 22.13764 39.61280 17216 ft 340 kts 274°
2026-05-07 17:30 22.14030 39.58750 16985 ft 339 kts 274°
2026-05-07 17:30 22.14294 39.56213 16899 ft 337 kts 274°
2026-05-07 17:30 22.14554 39.53674 16893 ft 338 kts 274°
2026-05-07 17:31 22.14810 39.51152 16883 ft 337 kts 274°
2026-05-07 17:31 22.15076 39.48604 16903 ft 338 kts 274°
2026-05-07 17:31 22.15125 39.46085 16881 ft 335 kts 255°
2026-05-07 17:31 22.14097 39.43880 16916 ft 335 kts 229°
2026-05-07 17:32 22.12396 39.42157 16913 ft 336 kts 221°
2026-05-07 17:32 22.10580 39.40574 16853 ft 334 kts 219°
2026-05-07 17:32 22.08746 39.39030 16880 ft 334 kts 219°
2026-05-07 17:32 22.06875 39.37463 16889 ft 336 kts 219°
2026-05-07 17:33 22.05033 39.35925 16876 ft 336 kts 219°
2026-05-07 17:33 22.03165 39.34370 16703 ft 338 kts 218°
2026-05-07 17:33 22.01301 39.32816 16179 ft 336 kts 218°
2026-05-07 17:33 21.99480 39.31287 15683 ft 331 kts 218°
2026-05-07 17:34 21.97682 39.29773 15211 ft 326 kts 218°
2026-05-07 17:34 21.95907 39.28275 14738 ft 324 kts 218°
2026-05-07 17:34 21.94143 39.26781 14267 ft 322 kts 218°
2026-05-07 17:34 21.92391 39.25286 13802 ft 320 kts 218°
2026-05-07 17:35 21.90652 39.23794 13299 ft 318 kts 218°
2026-05-07 17:35 21.88922 39.22298 12844 ft 318 kts 218°
2026-05-07 17:35 21.87203 39.20810 12395 ft 316 kts 218°
2026-05-07 17:35 21.85413 39.19373 11913 ft 316 kts 206°
2026-05-07 17:36 21.83285 39.18943 11500 ft 302 kts 174°
2026-05-07 17:36 21.81265 39.19412 11111 ft 294 kts 165°
2026-05-07 17:36 21.79316 39.20037 10703 ft 291 kts 163°
2026-05-07 17:36 21.77384 39.20689 10300 ft 291 kts 163°
2026-05-07 17:37 21.75440 39.21346 9938 ft 290 kts 163°
2026-05-07 17:37 21.73484 39.22006 9682 ft 289 kts 162°
2026-05-07 17:37 21.71618 39.22886 9444 ft 289 kts 154°
2026-05-07 17:37 21.69817 39.23865 9213 ft 290 kts 154°
2026-05-07 17:38 21.68020 39.24865 9032 ft 289 kts 154°
2026-05-07 17:38 21.66228 39.25868 9017 ft 288 kts 153°
2026-05-07 17:38 21.64437 39.26873 8774 ft 292 kts 153°
2026-05-07 17:38 21.62639 39.27877 8408 ft 290 kts 154°
2026-05-07 17:39 21.60858 39.28870 8041 ft 286 kts 153°
2026-05-07 17:39 21.59098 39.29852 7708 ft 284 kts 153°
2026-05-07 17:39 21.57330 39.30833 7351 ft 280 kts 153°
2026-05-07 17:39 21.55620 39.31780 6968 ft 271 kts 153°
2026-05-07 17:40 21.53974 39.32689 6611 ft 260 kts 153°
2026-05-07 17:40 21.52390 39.33567 6264 ft 251 kts 153°
2026-05-07 17:40 21.50852 39.34417 5915 ft 244 kts 153°
2026-05-07 17:40 21.49366 39.35239 5635 ft 234 kts 153°
2026-05-07 17:41 21.47924 39.36034 5400 ft 229 kts 153°
2026-05-07 17:41 21.46489 39.36821 5186 ft 231 kts 153°
2026-05-07 17:41 21.45046 39.37608 4977 ft 232 kts 153°
2026-05-07 17:41 21.43583 39.38401 4803 ft 231 kts 153°
2026-05-07 17:42 21.42147 39.39156 4657 ft 232 kts 160°
2026-05-07 17:42 21.40549 39.39218 4443 ft 235 kts 201°
2026-05-07 17:42 21.39306 39.38120 4279 ft 233 kts 240°
2026-05-07 17:42 21.38662 39.36530 4106 ft 234 kts 251°
2026-05-07 17:43 21.38172 39.34858 3882 ft 233 kts 263°
2026-05-07 17:43 21.38516 39.33230 3679 ft 221 kts 303°
2026-05-07 17:43 21.39428 39.31955 3526 ft 206 kts 311°
2026-05-07 17:43 21.40358 39.30809 3398 ft 191 kts 313°
2026-05-07 17:44 21.41243 39.29738 3273 ft 188 kts 314°
2026-05-07 17:44 21.42116 39.28686 3125 ft 188 kts 314°
2026-05-07 17:44 21.43034 39.27677 3015 ft 186 kts 328°
2026-05-07 17:44 21.44175 39.27042 3035 ft 185 kts 336°
2026-05-07 17:45 21.45397 39.26468 3018 ft 186 kts 339°
2026-05-07 17:45 21.46598 39.25946 3014 ft 186 kts 339°
2026-05-07 17:45 21.47816 39.25441 3005 ft 186 kts 340°
2026-05-07 17:45 21.49034 39.24949 3005 ft 187 kts 340°
2026-05-07 17:46 21.50254 39.24462 3008 ft 187 kts 341°
2026-05-07 17:46 21.51476 39.23979 3009 ft 186 kts 341°
2026-05-07 17:46 21.52730 39.23486 2918 ft 189 kts 341°
2026-05-07 17:46 21.53969 39.23002 2639 ft 187 kts 341°
2026-05-07 17:47 21.55177 39.22530 2383 ft 181 kts 341°
2026-05-07 17:47 21.56401 39.22051 2128 ft 178 kts 341°
2026-05-07 17:47 21.57587 39.21585 1886 ft 174 kts 342°
2026-05-07 17:47 21.58749 39.21133 1654 ft 171 kts 342°
2026-05-07 17:48 21.59824 39.20712 1414 ft 156 kts 342°
2026-05-07 17:48 21.60817 39.20322 1232 ft 138 kts 342°
2026-05-07 17:48 21.61713 39.19973 1062 ft 147 kts 342°
2026-05-07 17:48 21.62641 39.19603 2159 ft 108 kts 341°
2026-05-07 17:49 21.63548 39.19194 2126 ft 160 kts 340°
2026-05-07 17:49 21.64635 39.18770 2397 ft 171 kts 342°
2026-05-07 17:49 21.65852 39.18354 3032 ft 178 kts 344°
2026-05-07 17:49 21.67044 39.17979 3240 ft 189 kts 344°
2026-05-07 17:50 21.68350 39.17588 3607 ft 184 kts 342°
2026-05-07 17:50 21.69505 39.17186 3915 ft 180 kts 348°
2026-05-07 17:50 21.70838 39.17236 4038 ft 207 kts 15°
2026-05-07 17:50 21.72169 39.17919 4029 ft 216 kts 35°
2026-05-07 17:51 21.73224 39.19076 4014 ft 217 kts 54°
2026-05-07 17:51 21.73861 39.20546 3993 ft 220 kts 71°
2026-05-07 17:51 21.74294 39.22200 3926 ft 236 kts 80°
2026-05-07 17:51 21.74299 39.23963 4011 ft 240 kts 97°
2026-05-07 17:52 21.73814 39.25703 4014 ft 244 kts 116°
2026-05-07 17:52 21.72845 39.27197 4019 ft 245 kts 133°
2026-05-07 17:52 21.71484 39.28314 4018 ft 244 kts 150°
2026-05-07 17:52 21.69962 39.29169 4018 ft 246 kts 153°
2026-05-07 17:53 21.68418 39.29981 4014 ft 247 kts 153°
2026-05-07 17:53 21.66869 39.30782 4015 ft 244 kts 153°
2026-05-07 17:53 21.65318 39.31585 4015 ft 247 kts 153°
2026-05-07 17:53 21.63766 39.32383 4013 ft 246 kts 153°
2026-05-07 17:54 21.62225 39.33179 4015 ft 244 kts 153°
2026-05-07 17:54 21.60686 39.33975 4021 ft 247 kts 153°
2026-05-07 17:54 21.59144 39.34771 4024 ft 245 kts 153°
2026-05-07 17:54 21.57606 39.35571 4027 ft 245 kts 153°
2026-05-07 17:55 21.56047 39.36378 4035 ft 247 kts 153°
2026-05-07 17:55 21.54486 39.37183 3968 ft 248 kts 154°
2026-05-07 17:55 21.52890 39.37787 3737 ft 237 kts 172°
2026-05-07 17:55 21.51278 39.37707 3608 ft 226 kts 193°
2026-05-07 17:56 21.49826 39.37083 3493 ft 223 kts 213°
2026-05-07 17:56 21.48646 39.35974 3331 ft 223 kts 233°
2026-05-07 17:56 21.47872 39.34486 3169 ft 223 kts 251°
2026-05-07 17:56 21.47319 39.32867 3047 ft 221 kts 252°
2026-05-07 17:57 21.46808 39.31290 3023 ft 219 kts 253°
2026-05-07 17:57 21.46475 39.30253 3015 ft 219 kts 253°
2026-05-07 17:57 21.45811 39.28182 3014 ft 219 kts 253°
2026-05-07 17:57 21.45522 39.26546 3017 ft 217 kts 274°
2026-05-07 17:58 21.46080 39.25051 3024 ft 210 kts 320°
2026-05-07 17:58 21.47483 39.24470 3044 ft 208 kts 358°
2026-05-07 17:58 21.49017 39.24352 3021 ft 207 kts 352°
2026-05-07 17:58 21.50531 39.24060 3011 ft 209 kts 348°
2026-05-07 17:59 21.51949 39.23662 3009 ft 207 kts 345°
2026-05-07 17:59 21.53416 39.23169 2765 ft 208 kts 342°
2026-05-07 17:59 21.54794 39.22660 2467 ft 201 kts 341°
2026-05-07 17:59 21.56182 39.22129 2193 ft 188 kts 342°
2026-05-07 18:00 21.57401 39.21655 1942 ft 176 kts 342°
2026-05-07 18:00 21.58572 39.21199 1697 ft 170 kts 342°
2026-05-07 18:00 21.59705 39.20756 1473 ft 155 kts 342°
2026-05-07 18:00 21.60669 39.20380 1259 ft 139 kts 342°
2026-05-07 18:01 21.61577 39.20025 1075 ft 130 kts 342°
2026-05-07 18:01 21.62486 39.19671 919 ft 130 kts 340°
2026-05-07 18:01 21.63412 39.19325 737 ft 130 kts 342°
2026-05-07 18:01 21.64344 39.18958 517 ft 131 kts 341°
2026-05-07 18:02 21.66175 39.18235 181 ft 127 kts 339°
2026-05-07 18:02 21.67065 39.17883 60 ft 121 kts 340°
2026-05-07 18:02 21.67750 39.17617 58 ft 69 kts 339°
2026-05-07 18:03 21.68208 39.17435 58 ft 59 kts 340°
2026-05-07 18:03 21.68586 39.17288 58 ft 51 kts 339°
2026-05-07 18:03 21.68867 39.17092 58 ft 36 kts 301°
2026-05-07 18:03 21.68945 39.16941 58 ft 14 kts 295°
2026-05-07 18:04 21.69034 39.16873 58 ft 16 kts 340°
2026-05-07 18:04 21.69143 39.16830 58 ft 11 kts 340°
2026-05-07 18:04 21.69193 39.16810 58 ft 2 kts 339°
2026-05-07 18:04 21.69194 39.16810 58 ft 0 kts 339°
2026-05-07 18:05 21.69206 39.16805 58 ft 5 kts 339°
2026-05-07 18:05 21.69250 39.16751 58 ft 13 kts 259°
2026-05-07 18:05 21.69164 39.16726 58 ft 15 kts 162°
2026-05-07 18:05 21.69037 39.16774 58 ft 19 kts 160°
2026-05-07 18:06 21.68893 39.16833 58 ft 22 kts 160°
2026-05-07 18:06 21.68724 39.16898 58 ft 24 kts 160°
2026-05-07 18:06 21.68552 39.16967 58 ft 25 kts 158°
2026-05-07 18:06 21.68373 39.17037 58 ft 28 kts 158°
2026-05-07 18:07 21.68181 39.17113 58 ft 30 kts 160°
2026-05-07 18:07 21.68059 39.17160 58 ft 6 kts 158°
2026-05-07 18:07 21.68053 39.17164 58 ft 0 kts 157°
2026-05-07 18:07 21.68052 39.17164 58 ft 0 kts 157°
2026-05-07 18:09 21.68037 39.17170 58 ft 4 kts 159°
2026-05-07 18:09 21.67998 39.17184 58 ft 7 kts 171°
2026-05-07 18:09 21.67957 39.17142 58 ft 9 kts 245°
2026-05-07 18:09 21.67926 39.17061 58 ft 12 kts 235°
2026-05-07 18:10 21.67842 39.17059 58 ft 14 kts 158°
2026-05-07 18:10 21.67731 39.17101 58 ft 15 kts 161°
2026-05-07 18:10 21.67636 39.17109 58 ft 13 kts 223°
2026-05-07 18:10 21.67617 39.17081 58 ft 3 kts 247°
2026-05-07 18:11 21.67605 39.17048 58 ft 1 kts 250°
2026-05-07 18:11 21.67605 39.17046 58 ft 0 kts 250°